Simultaneous Nadir Overpasses (SNOs) Predictions

Prediction of SNOs between GOES-16 and METOP-C Satellite Orbit:

Table of predicted SNOs for the next 14.0 days since TLE Epoch: 2/27/2021
Index Date Time (GOES-16) GOES-16 Lat,Lon METOP-C Lat,Lon Distance(km) Time Diff (sec)
1 02/28/2021 02:14:24 -0.03, -75.18 0.88, -71.07 467.83 80
2 03/01/2021 14:33:17 0.03, -75.22 0.13, -75.64 48.02 80
3 03/04/2021 02:34:17 -0.02, -75.20 -0.02, -75.24 4.74 80
4 03/06/2021 14:32:30 0.02, -75.25 -0.07, -74.81 49.56 80
5 03/08/2021 02:51:30 -0.02, -75.23 -0.97, -79.40 475.67 80
6 03/09/2021 02:28:11 -0.01, -75.24 0.20, -74.42 94.33 80
7 03/10/2021 14:47:03 0.00, -75.28 0.82, -78.98 420.87 80
8 03/11/2021 14:29:04 0.00, -75.30 -0.29, -73.98 149.98 80
9 03/13/2021 02:48:03 -0.00, -75.30 -0.74, -78.57 373.24 80
